User: anonymous   Login
Location: Melbourne
(37.8170°S, 144.9670°E)
Time: 13:04:14
(UTC+10:00)
Language:

Aureole 2 Rocket - Orbit

View from above orbital plane
View from above orbital plane
View from above satellite
View from above satellite

Ground track
Ground track

The orbit data is extracted from the following two-line orbital elements,

1  7004U 73107B   15239.90674065 +.00018175 +00000-0 +38493-3 0  9998
2  7004 073.9421 037.2548 0239392 074.0428 041.9412 15.19941830136339
Epoch (UTC): 27 August 2015 21:45:42
Eccentricity: 0.0239392
inclination: 73.9421°
perigee height: 341 km
apogee height: 671 km
right ascension of ascending node: 37.2548°
argument of perigee: 74.0428°
revolutions per day: 15.19941830
mean anomaly at epoch: 41.9412°
orbit number at epoch: 13633

The dashed part of the orbit path shows where the satellite is in the earth's shadow,  

DLR